Вернуться в каталог

STARLINK-37862

АктивенСвязьSSO
NORAD 69551·PAYLOAD·🇺🇸 United States

Запущен Jun 15, 2026 с Vandenberg Space Force Base

Loading…

Ближайшие Пролёты (ближайшие 24 часа)

TLE

СвежийSource: CelesTrak SupGP

Эпоха: Sep 15, 2026, 03:55 UTC

1 69551C 26135F   26258.16368056 -.00051796  00000+0 -16080-2 0  2585
2 69551  97.2835 285.8909 0001092  94.8120 134.7669 15.33463519    16

Отслеживайте STARLINK-37862 в реальном времени с AllMySat

Download on the App Store